[[{"header":{"parameterUnit":"m.s-1","parameterCategory":1,"la1":30.2991,"la2":30.254,"lo1":-89.0895,"lo2":-89.0444,"dy":0.0017,"dx":0.0017,"nx":28,"ny":28,"refTime":"2025-01-20T09:00:00:Z","depth":0,"parameterNumber":2,"parameterNumberName":"U-component_of_WINDS"},"data":[0,0,0,0,0,0,0,0,0,0,0,0,0,0,0,0,0,0,0,0,0,0,0,0,0,0,0,0,0,0,0,0,0,0,0,0,0,0,0,0,0,0,0,0,0,0,0,0,0,0,0,0,0,0,0,0,0,0,-1.3096,-1.3095,0,-1.3023,-1.3022,-1.3021,-1.2932,-1.2931,-1.293,-1.2928,-1.285,-1.2849,-1.2849,0,0,0,0,0,0,0,0,0,0,0,0,0,-1.3155,-1.3155,-1.3096,-1.3095,-1.3094,-1.3023,-1.3022,-1.3021,-1.2933,-1.2931,-1.2929,-1.2928,-1.285,-1.2849,-1.2848,0,0,0,0,0,0,0,0,0,0,0,0,0,-1.3111,-1.3155,-1.3096,-1.3042,-1.3036,-1.3023,-1.3022,-1.3021,-1.2933,-1.2931,-1.2929,-1.2927,-1.2851,-1.285,-1.2848,-1.2882,0,0,-1.2845,-1.2844,0,0,0,0,0,0,0,0,-1.3113,-1.3109,-1.3051,-1.3045,-1.3039,-1.2985,-1.3014,-1.2974,-1.2934,-1.2972,-1.2928,-1.2926,-1.2896,-1.2891,-1.2882,-1.2879,-1.2875,-1.2845,-1.2844,-1.2843,-1.2843,0,0,0,0,0,0,0,-1.3117,-1.3111,-1.3067,-1.305,-1.3043,-1.302,-1.3011,-1.3006,-1.2947,-1.2969,-1.2962,-1.2955,-1.2893,-1.2883,-1.288,-1.2874,-1.2845,-1.2844,-1.2843,-1.2842,-1.2895,-1.2897,0,0,0,0,0,0,-1.3128,-1.3114,-1.3069,-1.3065,-1.3072,-1.302,-1.3011,-1.3004,-1.2946,-1.2936,-1.2957,-1.2951,-1.2886,-1.2881,-1.2876,-1.2913,-1.2843,-1.2842,-1.2842,-1.2893,-1.2895,-1.2897,0,0,0,0,0,0,-1.313,-1.3125,-1.3072,-1.3088,-1.3079,-1.3021,-1.3015,-1.3004,-1.2994,-1.2937,-1.2926,-1.2958,-1.2885,-1.2878,-1.2882,-1.2909,-1.2842,-1.2841,-1.289,-1.2893,-1.2896,-1.2987,0,0,0,0,0,0,-1.3132,-1.3126,-1.314,-1.3089,-1.3079,-1.3081,-1.3017,-1.3004,-1.2993,-1.2985,-1.2936,-1.2926,-1.2882,-1.2884,-1.2881,-1.2907,-1.284,-1.2887,-1.2892,-1.2895,-1.2982,-1.2993,-1.3003,0,0,0,0,0,-1.3134,-1.3167,-1.3141,-1.3136,-1.3095,-1.3082,-1.3076,-1.3027,-1.2996,-1.3008,-1.2971,-1.2927,-1.2906,-1.2885,-1.2881,-1.2907,-1.2886,-1.289,-1.2895,-1.2977,-1.2991,-1.3003,0,0,0,0,0,0,-1.3222,-1.316,-1.313,-1.3147,-1.3121,-1.3067,-1.3082,-1.3043,-1.3025,-1.3018,-1.2956,-1.2945,-1.2957,-1.2931,-1.2909,-1.2936,-1.2889,-1.2894,-1.2953,-1.2966,-1.2977,-1.2984,-1.2839,0,0,0,0,0,-1.3244,-1.324,-1.3185,-1.3206,-1.3194,-1.314,-1.3133,-1.3097,-1.3067,-1.3055,-1.3018,-1.299,-1.2977,-1.2969,-1.2954,-1.2976,-1.2965,-1.2992,-1.3002,-1.3011,-1.3017,-1.3027,-1.3039,-1.2913,-1.2913,-1.2913,0,0,-1.3288,-1.3253,-1.3254,-1.3222,-1.3198,-1.3195,-1.3132,-1.3131,-1.3128,-1.3054,-1.3057,-1.3029,-1.2992,-1.3006,-1.301,-1.2985,-1.3048,-1.3018,-1.3025,-1.3025,-1.3033,-1.3045,-1.3056,-1.2916,-1.2916,-1.2915,0,0,-1.3367,-1.334,-1.3356,-1.3332,-1.3296,-1.326,-1.3263,-1.3215,-1.3195,-1.3196,-1.3141,-1.3135,-1.3114,-1.309,-1.3076,-1.3145,-1.3105,-1.3142,-1.3199,-1.321,-1.322,-1.3228,-1.3255,-1.3265,-1.3146,-1.3146,-1.3147,0,-1.3427,-1.3422,-1.3368,-1.3371,-1.3358,-1.3292,-1.3307,-1.3286,-1.3246,-1.3239,-1.3211,-1.3183,-1.3154,-1.3162,-1.3179,-1.3168,-1.3171,-1.3148,-1.3223,-1.3231,-1.3238,-1.3262,-1.3272,-1.3151,-1.3151,-1.315,-1.315,0,-1.3497,-1.3494,-1.351,-1.3475,-1.3464,-1.3472,-1.3419,-1.3414,-1.3378,-1.3345,-1.3347,-1.3309,-1.3285,-1.3283,-1.3248,-1.3286,-1.3272,-1.3234,-1.3187,-1.3256,-1.3278,-1.3287,-1.3158,-1.3157,-1.3155,-1.3154,0,0,-1.3632,-1.3567,-1.3574,-1.3558,-1.3512,-1.3508,-1.3513,-1.3491,-1.3488,-1.3462,-1.3465,-1.3448,-1.3413,-1.3396,-1.3357,-1.3367,-1.3426,-1.3328,-1.3326,-1.3349,-1.3467,-1.3497,-1.3509,-1.3397,-1.3399,-1.34,-1.347,0,-1.3706,-1.3713,-1.3664,-1.3684,-1.368,-1.3616,-1.362,-1.3593,-1.3561,-1.3552,-1.3515,-1.3506,-1.3459,-1.3449,-1.3455,-1.3418,-1.3449,-1.3411,-1.34,-1.34,-1.3414,-1.352,-1.3552,-1.3621,-1.3478,-1.348,-1.3481,0,-1.3793,-1.3773,-1.3793,-1.3747,-1.3744,-1.3749,-1.3725,-1.3717,-1.3683,-1.3659,-1.3641,-1.3596,-1.3597,-1.3549,-1.3549,-1.3525,-1.3516,-1.3497,-1.3498,-1.3497,-1.3447,-1.3524,-1.3641,-1.3653,-1.3493,-1.3492,-1.3491,0,-1.3892,-1.387,-1.388,-1.3867,-1.3813,-1.3818,-1.3795,-1.376,-1.3749,-1.3727,-1.372,-1.3698,-1.3686,-1.3669,-1.3619,-1.3589,-1.3625,-1.3573,-1.3605,-1.3607,-1.3618,-1.3619,-1.3738,-1.3609,-1.3609,-1.3609,-1.3608,0,-1.3981,-1.3996,-1.3924,-1.393,-1.3945,-1.3887,-1.3903,-1.3873,-1.3842,-1.3841,-1.3782,-1.3782,-1.3715,-1.3706,-1.3667,-1.3673,-1.3667,-1.3648,-1.3638,-1.3655,-1.3658,-1.3651,-1.3646,-1.3611,-1.3611,-1.361,-1.361,0,-1.4096,-1.4048,-1.4054,-1.4002,-1.3989,-1.4003,-1.3958,-1.396,-1.3924,-1.3923,-1.3919,-1.3863,-1.385,-1.3797,-1.3771,-1.3744,-1.3765,-1.3743,-1.3777,-1.3771,-1.3807,-1.3805,-1.3928,-1.3941,-1.3802,-1.3803,-1.3804,0,-1.4157,-1.4167,-1.4117,-1.4112,-1.4093,-1.4086,-1.4075,-1.4018,-1.4009,-1.3971,-1.3979,-1.3961,-1.3945,-1.3926,-1.3882,-1.3862,-1.384,-1.3885,-1.3837,-1.3854,-1.3844,-1.3845,-1.3846,-1.3896,-1.3898,-1.3899,-1.39,0,-1.4271,-1.4247,-1.4235,-1.4215,-1.4204,-1.4185,-1.4162,-1.4161,-1.4097,-1.409,-1.4077,-1.4064,-1.4038,-1.4022,-1.3994,-1.3968,-1.3924,-1.3915,-1.3922,-1.3941,-1.3962,-1.3953,-1.3808,-1.3914,-1.3912,-1.3911,-1.3911,-1.391,-1.4362,-1.4369,-1.4335,-1.4323,-1.43,-1.428,-1.4281,-1.4245,-1.4233,-1.4209,-1.4174,-1.4166,-1.413,-1.4089,-1.4067,-1.4059,-1.4034,-1.4043,-1.4046,-1.405,-1.4059,-1.3961,-1.4053,-1.4052,-1.4052,-1.4051,-1.4051,0,-1.4476,-1.445,-1.444,-1.4411,-1.4402,-1.436,-1.4333,-1.4328,-1.4322,-1.4293,-1.4278,-1.4262,-1.4246,-1.42,-1.4178,-1.418,-1.416,-1.4177,-1.4178,-1.4173,-1.4081,-1.4079,-1.4194,-1.4194,-1.4194,-1.4194,-1.4194,-1.4194,-1.4534,-1.4544,-1.4515,-1.4512,-1.4485,-1.4478,-1.4466,-1.4447,-1.4424,-1.441,-1.4397,-1.4367,-1.4331,-1.4306,-1.4289,-1.4275,-1.4271,-1.4296,-1.4276,-1.4192,-1.4179,-1.4166,-1.4163,-1.4295,-1.4295,-1.4368,-1.4369,-1.437]},{"header":{"parameterUnit":"m.s-1","parameterCategory":1,"la1":30.2991,"la2":30.254,"lo1":-89.0895,"lo2":-89.0444,"dy":0.0017,"dx":0.0017,"nx":28,"ny":28,"refTime":"2025-01-20T09:00:00:Z","depth":0,"parameterNumber":3,"parameterNumberName":"V-component_of_WINDS"},"data":[0,0,0,0,0,0,0,0,0,0,0,0,0,0,0,0,0,0,0,0,0,0,0,0,0,0,0,0,0,0,0,0,0,0,0,0,0,0,0,0,0,0,0,0,0,0,0,0,0,0,0,0,0,0,0,0,0,0,-9.5272,-9.5274,0,-9.549,-9.5493,-9.5495,-9.539,-9.5384,-9.5379,-9.5374,-9.5589,-9.56,-9.5611,0,0,0,0,0,0,0,0,0,0,0,0,0,-9.4755,-9.4765,-9.5271,-9.5274,-9.5277,-9.549,-9.5493,-9.5496,-9.5391,-9.5384,-9.5378,-9.5371,-9.5586,-9.5599,-9.5612,0,0,0,0,0,0,0,0,0,0,0,0,0,-9.4977,-9.4768,-9.5271,-9.5251,-9.5251,-9.5489,-9.5493,-9.5496,-9.5392,-9.5384,-9.5376,-9.5368,-9.5582,-9.5597,-9.5614,-9.5882,0,0,-9.5664,-9.5671,0,0,0,0,0,0,0,0,-9.4964,-9.4996,-9.5251,-9.5252,-9.5253,-9.5404,-9.5389,-9.5625,-9.5395,-9.5339,-9.5374,-9.5364,-9.5534,-9.5554,-9.5613,-9.5892,-9.5901,-9.5665,-9.5675,-9.5682,-9.5687,0,0,0,0,0,0,0,-9.4949,-9.4986,-9.5358,-9.5255,-9.5256,-9.5228,-9.525,-9.5434,-9.548,-9.5343,-9.5336,-9.5363,-9.5533,-9.5597,-9.5617,-9.5905,-9.5665,-9.5679,-9.5689,-9.5696,-9.6413,-9.6422,0,0,0,0,0,0,-9.4935,-9.4974,-9.5351,-9.5364,-9.5085,-9.5244,-9.5269,-9.5364,-9.5478,-9.5487,-9.537,-9.5358,-9.5573,-9.5598,-9.5624,-9.5946,-9.5682,-9.5697,-9.5707,-9.6404,-9.6415,-9.6425,0,0,0,0,0,0,-9.4925,-9.497,-9.5342,-9.5167,-9.5212,-9.5262,-9.537,-9.5373,-9.5437,-9.5499,-9.5506,-9.5428,-9.5568,-9.5601,-9.5819,-9.5952,-9.5705,-9.572,-9.6393,-9.6407,-9.642,-9.6592,0,0,0,0,0,0,-9.491,-9.4967,-9.5072,-9.517,-9.5222,-9.5537,-9.5378,-9.5383,-9.5467,-9.5452,-9.5555,-9.5564,-9.5564,-9.5795,-9.5835,-9.597,-9.5733,-9.6381,-9.6399,-9.6416,-9.6575,-9.661,-9.664,0,0,0,0,0,-9.4892,-9.511,-9.5078,-9.5124,-9.5355,-9.5544,-9.5573,-9.5571,-9.5478,-9.5582,-9.5622,-9.5561,-9.5931,-9.5818,-9.5863,-9.6005,-9.6373,-9.6394,-9.6414,-9.656,-9.6603,-9.664,0,0,0,0,0,0,-9.5023,-9.5122,-9.5088,-9.5344,-9.5437,-9.5526,-9.5658,-9.5617,-9.5736,-9.5717,-9.5707,-9.5731,-9.5957,-9.6001,-9.5875,-9.6269,-9.6137,-9.6168,-9.6233,-9.6274,-9.6306,-9.6291,-9.5746,0,0,0,0,0,-9.5082,-9.5231,-9.5308,-9.5527,-9.5575,-9.5609,-9.5691,-9.5682,-9.5776,-9.5814,-9.5869,-9.5961,-9.6097,-9.6188,-9.6317,-9.658,-9.66,-9.6699,-9.6731,-9.6758,-9.6785,-9.6927,-9.6971,-9.6493,-9.6493,-9.6493,0,0,-9.5205,-9.5278,-9.5372,-9.5555,-9.5626,-9.5777,-9.5643,-9.5809,-9.592,-9.5838,-9.6049,-9.6092,-9.6193,-9.6435,-9.6544,-9.6479,-9.6921,-9.6785,-9.6805,-9.6818,-9.6953,-9.6998,-9.7038,-9.6507,-9.6505,-9.6502,0,0,-9.5507,-9.5577,-9.5768,-9.5841,-9.5951,-9.5972,-9.6017,-9.6113,-9.614,-9.6351,-9.6292,-9.6422,-9.6658,-9.6733,-9.6802,-9.713,-9.7078,-9.7172,-9.7344,-9.7482,-9.752,-9.7553,-9.767,-9.7713,-9.7198,-9.7199,-9.7199,0,-9.5646,-9.5875,-9.5869,-9.6041,-9.6123,-9.6057,-9.6248,-9.6319,-9.6464,-9.6521,-9.6446,-9.6741,-9.6804,-9.7062,-9.7143,-9.72,-9.725,-9.7161,-9.7515,-9.7549,-9.7579,-9.7691,-9.7735,-9.721,-9.7208,-9.7207,-9.7206,0,-9.6039,-9.6199,-9.6338,-9.6484,-9.658,-9.6761,-9.678,-9.6878,-9.6859,-9.6887,-9.7101,-9.7175,-9.7318,-9.7377,-9.736,-9.7633,-9.7589,-9.7516,-9.7383,-9.7636,-9.7741,-9.7784,-9.7225,-9.7221,-9.7218,-9.7215,0,0,-9.6432,-9.6572,-9.6623,-9.6688,-9.6803,-9.6925,-9.71,-9.7242,-9.7327,-9.7427,-9.7574,-9.7774,-9.7707,-9.7785,-9.7774,-9.7895,-9.8151,-9.7806,-9.7808,-9.7868,-9.8456,-9.8512,-9.8562,-9.8116,-9.8124,-9.8131,-9.8447,0,-9.6743,-9.7055,-9.7055,-9.7341,-9.7488,-9.7427,-9.7579,-9.7665,-9.7695,-9.782,-9.7851,-9.7994,-9.7894,-9.7941,-9.8058,-9.8095,-9.8269,-9.8072,-9.825,-9.8257,-9.8229,-9.8616,-9.8676,-9.8972,-9.8488,-9.8495,-9.85,0,-9.7149,-9.7266,-9.7569,-9.7662,-9.7723,-9.7861,-9.7991,-9.8113,-9.8207,-9.8219,-9.8307,-9.8277,-9.8453,-9.8314,-9.8554,-9.8421,-9.8493,-9.8522,-9.8533,-9.8551,-9.8395,-9.8645,-9.9066,-9.9111,-9.8564,-9.8559,-9.8555,0,-9.7406,-9.7639,-9.785,-9.7907,-9.8021,-9.8119,-9.817,-9.8257,-9.8342,-9.8454,-9.8508,-9.8638,-9.871,-9.8809,-9.8814,-9.8712,-9.9057,-9.8918,-9.9071,-9.9072,-9.9148,-9.9144,-9.9588,-9.9193,-9.9192,-9.9191,-9.919,0,-9.7755,-9.7942,-9.7968,-9.8098,-9.8305,-9.83,-9.8504,-9.8546,-9.8623,-9.8758,-9.8711,-9.8837,-9.8836,-9.8964,-9.8968,-9.9167,-9.9199,-9.9212,-9.9212,-9.9218,-9.9217,-9.9267,-9.9247,-9.9203,-9.92,-9.9198,-9.9196,0,-9.8078,-9.8103,-9.8329,-9.8419,-9.8445,-9.8594,-9.8669,-9.8791,-9.8815,-9.8987,-9.9026,-9.9064,-9.9213,-9.9227,-9.9398,-9.9401,-9.9641,-9.9617,-9.9611,-9.9608,-9.976,-9.9746,-10.0253,-10.0319,-9.988,-9.9884,-9.9888,0,-9.83,-9.8443,-9.8549,-9.8637,-9.8695,-9.8837,-9.8924,-9.8924,-9.9016,-9.9134,-9.9241,-9.9385,-9.9501,-9.974,-9.9781,-9.9911,-9.9891,-10.0059,-9.991,-9.9912,-9.9894,-9.9887,-9.9901,-10.0089,-10.0094,-10.0098,-10.0101,0,-9.8692,-9.8697,-9.8826,-9.896,-9.9066,-9.917,-9.9268,-9.9342,-9.9353,-9.9458,-9.9611,-9.9701,-9.9876,-10.0019,-10.0147,-10.0196,-10.0151,-10.0147,-10.019,-10.0199,-10.019,-10.0197,-9.9691,-10.0136,-10.0133,-10.013,-10.0128,-10.0127,-9.8972,-9.9096,-9.919,-9.9335,-9.9409,-9.9501,-9.9621,-9.9661,-9.9789,-9.9934,-9.9924,-10.0093,-10.018,-10.0348,-10.0406,-10.0536,-10.0479,-10.054,-10.0556,-10.0572,-10.0588,-10.0168,-10.0558,-10.0557,-10.0556,-10.0556,-10.0555,0,-9.9362,-9.9419,-9.9553,-9.9692,-9.9805,-9.9754,-9.9859,-9.9957,-10.0107,-10.0193,-10.0309,-10.0483,-10.0621,-10.0673,-10.0806,-10.09,-10.0882,-10.0935,-10.0929,-10.0941,-10.0631,-10.0581,-10.0947,-10.0947,-10.0947,-10.0947,-10.0947,-10.0947,-9.9578,-9.9787,-9.9802,-10.0045,-10.0099,-10.0267,-10.0331,-10.0414,-10.0484,-10.0682,-10.0798,-10.0831,-10.0903,-10.1042,-10.1165,-10.1176,-10.1228,-10.129,-10.1293,-10.1002,-10.0963,-10.0925,-10.0879,-10.1301,-10.1302,-10.1592,-10.1595,-10.1597]}]]